{"data":{"norad_id":48327,"epoch":"2026-09-19T15:52:33.263040Z","epoch_age_seconds":106100,"freshness":"FRESH","line1":"1 48327U 21036BD  26262.66149610  .00000204  00000+0  18355-4 0  9998","line2":"2 48327  53.1604 278.3957 0001466  70.5142 289.6018 15.31696872297765","mean_motion":15.31696872,"eccentricity":0.0001466,"inclination_deg":53.1604,"raan_deg":278.3957,"arg_perigee_deg":70.5142,"mean_anomaly_deg":289.6018,"bstar":1.8355e-5,"rev_number":29776,"period_min":94.013379952897,"perigee_km":469.74527291229,"apogee_km":471.75336638121,"semimajor_km":6848.8863196467,"source":"CELESTRAK","updated_at":"2026-09-20T09:00:38.937052Z"}}